Location: D�rnast
(49.6426°N, 11.9755°E)
Time: 01:24:36
(UTC+00:00)

H-2A R/B - Pass Details

Date: 24 January 2021
Orbit: 734 x 836 km, 98.2° (Epoch: 24 February)

Event Time Altitude Azimuth Distance (km) Brightness Sun altitude
Rises 17:45:40 0° 162° (SSE) 3,185 5.1 -17.8°
Reaches altitude 10° 17:47:55 10° 162° (SSE) 2,277 4.4 -18.1°
Maximum altitude 17:52:56 86° 75° (ENE) 779 1.9 -18.9°
Drops below altitude 10° 17:58:09 10° 347° (NNW) 2,358 4.6 -19.8°
Sets 18:00:31 0° 347° (NNW) 3,307 5.4 -20.2°
